Location: Wyoming Infrared Observatory
(41.0971°N, 105.9765°W)
Time: 12:44:13
(UTC-06:00)

Daily predictions for brighter satellites

Satellite Brightness Start Highest point End
(mag) Time Altitude Azimuth Time Altitude Azimuth Time Altitude Azimuth
Cosmos 2150 Rocket 4.1 20:49:02 10° SSW 20:54:25 83° ESE 20:59:45 10° NNE
Cosmos 2298 Rocket 4.2 20:49:49 10° SSW 20:55:07 86° WNW 21:00:27 10° NNE
Cosmos 1408 4.5 20:53:43 10° ESE 20:55:49 15° E 20:57:56 10° NE
SJ-11-01 4.4 20:55:10 10° SSE 20:59:50 62° ENE 21:04:29 10° N
Meteor 2-3 Rocket 3.8 20:55:51 10° S 21:01:29 64° E 21:07:06 10° NNE
Cosmos 1782 4.3 20:58:26 10° NNE 21:01:31 21° ENE 21:04:34 10° SE
Cosmos 2082 Rocket 3.9 20:57:25 10° NW 21:02:22 32° WSW 21:07:19 10° SSW
Meteor 1-26 Rocket 4.3 20:58:08 10° N 21:03:49 82° E 21:09:33 10° S
Cosmos 1825 3.7 21:03:47 10° SE 21:06:26 19° E 21:09:07 10° NE
ERS-1 Rocket 3.8 21:04:05 10° SE 21:08:35 34° ENE 21:13:07 10° N
Cosmos 1869 Rocket 4.1 21:06:10 10° SSE 21:10:10 38° E 21:14:13 10° NNE
Helios 1B rocket 2.5 21:09:44 10° NNE 21:13:48 55° E 21:17:49 10° S
Cosmos 2084 3.5 21:10:32 10° NNW 21:14:18 55° NE 21:17:51 12° SE
NOSS 3-2 (A) 4.4 21:11:39 10° SW 21:17:32 55° NW 21:24:02 10° NNE
USA 186 3.9 21:19:35 10° SSW 21:21:45 22° W 21:24:02 10° NW
Lacrosse 4 Rocket 3.1 21:18:50 10° N 21:22:30 24° NE 21:25:48 11° ESE
Cosmos 1892 3.3 21:19:45 10° SSW 21:23:33 61° W 21:27:21 10° N
ISS -3.7 21:20:50 10° WSW 21:24:04 79° NW 21:27:20 10° NE
Cosmos 2221 Rocket 3.8 21:21:59 10° N 21:26:20 52° E 21:30:22 12° SSE
DELTA 2 R/B(2) 3.1 21:26:04 10° WSW 21:27:50 45° S 21:28:28 26° ESE
USA 215 3.7 21:22:28 10° ESE 21:28:48 55° NE 21:35:11 10° NW
Tiangong 2 2.1 21:30:56 10° W 21:33:56 36° SSW 21:35:46 19° SSE
Cosmos 1943 Rocket 2.4 21:28:50 10° S 21:34:09 47° ESE 21:39:29 10° NE
Terra 3.9 21:33:40 10° E 21:35:37 12° ENE 21:37:35 10° NE
NOSS 3-2 (C) 4.4 21:32:27 10° SW 21:38:19 52° NW 21:44:49 10° NNE
Envisat 4.3 21:36:32 10° SSW 21:41:14 38° W 21:45:59 10° NNW
Cosmos 2344 3.9 21:34:29 10° S 21:41:39 45° ESE 21:49:19 10° NE
Cosmos 1340 3.4 21:38:09 10° N 21:41:41 35° ENE 21:43:36 21° SE
Cosmos 468 4.5 21:37:11 10° NNW 21:42:29 76° ENE 21:46:37 16° SSE
Cosmos 1634 Rocket 4.2 21:37:34 10° N 21:43:53 79° W 21:50:11 10° S
Cosmos 2263 4.2 21:38:18 10° SSW 21:44:01 74° ESE 21:49:46 10° NNE
CZ-4B DEB 3.0 21:41:43 13° S 21:44:14 57° W 21:47:08 10° NNW
SPOT 1/Viking Rocket 4.5 21:41:31 17° ESE 21:44:44 32° ENE 21:49:20 10° N
Cosmos 372 Rocket 4.0 21:40:37 10° S 21:45:36 55° ESE 21:50:36 10° NNE
NOAA 11 4.2 21:40:47 13° SSE 21:45:45 77° ENE 21:51:16 10° N
Helios 1A 3.9 21:43:11 10° S 21:47:13 47° W 21:51:18 10° NNW
SPOT 5 3.5 21:47:24 19° SE 21:51:04 50° ENE 21:56:10 10° N
Cosmos 1269 Rocket 4.2 21:46:45 10° NNW 21:51:59 59° ENE 21:55:22 22° SE
CENTAUR R/B 2.4 21:46:18 10° SSW 21:52:14 76° ESE 21:59:01 10° NE
COSMOS 2455 3.4 21:47:46 10° SW 21:53:42 62° WNW 21:59:41 10° NNE
SAR-Lupe-4 4.0 21:51:25 14° S 21:54:22 58° W 21:57:55 10° NNW
Nadezhda 4 Rocket 4.5 21:51:21 18° SSE 21:55:26 39° E 22:01:06 10° NNE
Resurs 01 Rocket 4.4 21:53:18 10° WSW 21:55:27 13° W 21:57:36 10° WNW
Cosmos 2369 Rocket 2.7 21:50:25 10° SW 21:56:01 65° WNW 22:01:42 10° NNE
Cosmos 1125 Rocket 3.4 21:51:12 10° SSW 21:56:26 84° ESE 22:01:42 10° NNE
Cosmos 1606 2.6 21:52:43 10° N 21:56:31 85° E 21:58:53 22° S
Shenzhou-11 Module 3.9 21:54:33 10° W 21:56:47 18° SSW 21:57:31 17° SSW
Milstar 3 4.0 21:49:20 10° SW 21:59:17 32° S 22:03:20 21° SE
Lacrosse 5 rocket 1.9 21:56:24 10° WSW 21:59:53 50° NW 22:03:27 10° NE
YAOGAN 6 4.4 21:59:05 10° SSW 22:02:22 30° W 22:05:40 10° NNW
Cosmos 1833 4.5 21:57:00 10° NNW 22:02:42 56° ENE 22:05:59 25° SE
Okean 1-7 4.1 22:11:51 10° NNW 22:16:02 43° W 22:19:40 13° SSW
GPS 2-04 Rocket1 3.5 22:13:21 10° WSW 22:16:29 29° SSW 22:16:29 29° SSW
Cosmos 2279 Rocket 4.2 22:11:21 10° NNW 22:17:36 73° W 22:22:39 16° S
ATLAS 5 CENTAUR R/B 2.4 22:13:05 10° NW 22:19:07 87° NE 22:22:41 29° SE
Cosmos 1867 4.5 22:15:03 10° NNW 22:20:09 38° NE 22:22:44 24° E
MetOp-B 4.4 22:17:02 19° S 22:20:55 64° WSW 22:26:15 10° NNW
Meteor 1-27 Rocket 3.7 22:16:46 10° N 22:22:34 85° E 22:25:43 28° SSE
H-2A R/B 2.1 22:22:47 30° SSE 22:25:34 78° ENE 22:30:55 10° N
Cosmos 158 Rocket 4.4 22:25:18 10° NNW 22:30:03 53° WSW 22:32:34 26° S
Cosmos 1408 4.3 22:27:16 10° SW 22:30:38 32° WNW 22:34:02 10° NNW
ARGOS 3.5 22:29:07 23° S 22:32:30 61° W 22:37:49 10° NNW
Cosmos 1656 Rocket 3.5 22:29:16 23° S 22:32:37 64° ESE 22:38:05 10° NNE
Cosmos 1733 Rocket 3.1 22:38:50 32° SSW 22:40:46 74° W 22:45:06 10° N
Cosmos 1825 4.2 22:38:37 10° SW 22:41:50 26° WNW 22:45:03 10° NNW
SL-08 RB Rocket 4.5 22:45:10 28° SSW 22:47:17 48° W 22:51:49 10° NNW
Intercosmos 25 Rocket 4.2 22:42:25 10° N 22:49:44 80° W 22:51:29 41° S
Sich 1 Rocket 3.7 22:49:49 52° ESE 22:50:00 53° E 22:54:19 10° NNE
Landsat 7 3.8 22:56:21 50° S 22:57:34 76° WSW 23:02:20 10° NNW
Cosmos 1655 Rocket 4.5 22:58:12 37° ESE 22:59:15 40° E 23:05:01 10° NNE
ISS -0.9 22:58:36 10° WNW 23:00:58 18° NNW 23:03:19 10° NNE
Lacrosse 4 Rocket 2.4 22:57:11 10° NW 23:01:21 38° WSW 23:02:08 35° SW
Cosmos 2227 Rocket 3.7 23:00:09 10° N 23:04:44 25° NE 23:06:32 21° E
Cosmos 1975 Rocket 3.7 23:01:06 10° N 23:05:13 41° ENE 23:05:13 41° ENE
CZ-2C R/B 4.5 23:02:29 10° NE 23:04:29 15° ENE 23:04:29 15° ENE
Meteor 1-14 Rocket 4.3 23:04:53 50° SSE 23:06:20 68° E 23:12:07 10° NNE
Meteor 2-20 Rocket 4.3 23:06:18 41° S 23:08:39 88° E 23:14:48 10° N
Cosmos 1812 3.4 23:05:18 10° N 23:08:29 46° NE 23:08:29 46° NE
ATLAS CENTAUR R/B 2.3 23:12:21 35° NE 23:12:21 35° NE 23:14:43 10° NE
Cosmos 2219 3.2 23:05:17 10° NNW 23:11:03 73° ENE 23:12:18 55° SE
USA 215 3.8 23:09:49 36° S 23:11:51 46° SW 23:18:07 10° WNW
Terra 1.8 23:12:01 63° SSW 23:12:43 77° WSW 23:17:30 10° NNW
CARTOSAT-1 3.6 23:13:27 68° SW 23:13:43 70° WSW 23:18:04 10° NNW
Cosmos 2026 Rocket 3.9 23:12:37 51° SSE 23:14:10 70° E 23:20:23 10° NNE
SL-19 R/B 4.4 23:09:29 10° NNE 23:15:34 76° ESE 23:17:23 48° S
Cosmos 1437 4.2 23:13:48 10° NNW 23:16:04 35° NW 23:16:04 35° NW
Cosmos 1674 Rocket 4.5 23:13:56 10° NNW 23:17:59 39° W 23:18:42 36° WSW
Cosmos 1943 Rocket 4.2 23:13:31 10° WSW 23:18:07 26° NW 23:22:43 10° N
Cosmos 1378 Rocket 3.5 23:14:30 10° NNW 23:18:56 75° W 23:19:06 73° WSW
Cosmos 2251 Rocket 3.4 23:15:28 10° NNW 23:20:42 76° WSW 23:21:25 64° SSW
CZ-4C R/B 4.3 23:25:55 43° NE 23:25:55 43° NE 23:29:25 10° N
Gbstr 26 Del rocket 4.3 23:21:50 10° NW 23:25:42 30° NNE 23:26:38 27° NE
ARGOS Delta rocket 4.0 23:22:03 10° NNE 23:25:49 52° ENE 23:25:49 52° ENE
Cosmos 1417 Rocket 4.5 23:23:27 10° N 23:29:42 69° E 23:30:50 57° SE
Cosmos 405 Rocket 3.6 23:26:25 10° N 23:29:06 45° N 23:29:06 45° N
H-2A R/B 2.2 23:31:06 66° NW 23:31:06 66° NW 23:34:47 10° NNW
Okean 1 4.3 23:27:40 10° N 23:30:35 39° NE 23:30:35 39° NE
Meteor 2-11 Rocket 4.4 23:25:31 10° N 23:31:38 66° E 23:32:33 58° SE
Cosmos 1428 Rocket 4.5 23:30:58 58° SE 23:32:00 69° E 23:38:17 10° NNE
GEOS 3 Rocket 3.7 23:35:54 59° SW 23:36:11 60° WSW 23:41:21 10° NW
S3M 4.0 23:30:48 10° N 23:36:51 60° E 23:37:37 55° ESE
Meteor 1-18 Rocket 4.1 23:34:42 10° N 23:40:28 85° W 23:41:12 69° S
SME Rocket 4.4 23:41:40 50° SSW 23:43:34 72° WSW 23:52:56 10° NNW
Spot 4 3.9 23:48:22 68° W 23:48:22 68° W 23:53:05 10° NNW
Mayak 1.4 23:46:21 10° ENE 23:46:31 10° ENE 23:46:31 10° ENE
CZ-4 R/B 4.1 23:46:15 10° N 23:50:50 59° WNW 23:50:59 59° W
Cosmos 1441 Rocket 4.5 23:52:08 10° NNW 23:54:41 40° NNW 23:54:41 40° NNW
